Weather History for Corpus Christi NAS, TX

Change the Weather History Date:

Wednesday, February 5, 2014

  Actual Average Record
Temperature  
Mean Temperature 50 °F -  
Max Temperature 57 °F 64 °F 81 °F (1999)
Min Temperature 44 °F 51 °F 30 °F (2011)
Degree Days  
Heating Degree Days 14    
Moisture  
Dew Point 43 °F    
Average Humidity 81    
Maximum Humidity 100    
Minimum Humidity 51    
Precipitation  
Precipitation 0.00 in - - ()
Sea Level Pressure  
Sea Level Pressure 30.18 in    
Wind  
Wind Speed 8 mph (NE)    
Max Wind Speed 25 mph    
Max Gust Speed 37 mph    
Visibility 6 miles    
Events Fog    
Averages and records for this station are not official NWS values.
T = Trace of Precipitation, MM = Missing Value Source: NWS Daily Summary

Daily Weather History Graph

Daily Weather History Graph

Search for Another Location

Airport:

Trip Planner

Search our weather history database for the weather conditions in past years. The results will help you decide how hot, cold, wet, or windy it might be!

Date:

Astronomy

Feb. 05, 2014 Rise Set
Actual Time 7:13 AM CST 6:13 PM CST
Civil Twilight 6:49 AM CST 6:37 PM CST
Nautical Twilight 6:21 AM CST 7:05 PM CST
Astronomical Twilight 5:53 AM CST 7:32 PM CST
Moon 11:06 AM CST (2/5) No Moon Set
Length of Visible Light 11h 48m
Length of Day
10h 59m
Waxing Crescent, 39% of the Moon is Illuminated
Feb 5
Waxing Crescent
Feb 6
First Quarter
Feb 14
Full
Feb 22
Last Quarter
Mar 1
New

Hourly Weather History & Observations

Time (CST) Temp. Windchill Dew Point Humidity Pressure Visibility Wind Dir Wind Speed Gust Speed Precip Events Conditions
12:04 AM 46.0 °F - 44.1 °F 93% 30.05 in 1.2 mi Calm Calm - N/A   Clear
12:07 AM 45.0 °F 43.5 °F 44.1 °F 97% 30.05 in 0.8 mi ENE 3.5 mph - N/A   Clear
12:16 AM 48.0 °F - 45.0 °F 89% 30.05 in 0.5 mi Calm Calm - N/A Fog Fog
12:24 AM 45.0 °F - 44.1 °F 97% 30.06 in 0.2 mi Calm Calm - N/A Fog Fog
12:56 AM 46.0 °F - 45.0 °F 96% 30.06 in 0.2 mi Calm Calm - N/A Fog Fog
1:40 AM 44.1 °F 42.5 °F 43.0 °F 96% 30.06 in 0.2 mi East 3.5 mph - N/A Fog Fog
1:44 AM 45.0 °F 41.8 °F 43.0 °F 93% 30.07 in 0.8 mi East 5.8 mph - N/A   Mist
1:46 AM 46.0 °F 43.9 °F 44.1 °F 93% 30.06 in 2.5 mi ENE 4.6 mph - N/A   Partly Cloudy
1:53 AM 44.6 °F 40.7 °F 44.6 °F 100% 30.07 in 6.0 mi East 6.9 mph - N/A   Partly Cloudy
1:56 AM 45.0 °F 41.8 °F 44.1 °F 97% 30.07 in 7.0 mi East 5.8 mph - N/A   Partly Cloudy
2:56 AM 48.9 °F - 48.0 °F 97% 30.09 in 9.0 mi East 3.5 mph - N/A   Clear
3:04 AM 46.9 °F - 46.0 °F 97% 30.10 in 1.8 mi SE 3.5 mph - N/A   Clear
3:14 AM 48.0 °F - 46.9 °F 96% 30.11 in 3.0 mi Calm Calm - N/A   Clear
3:22 AM 46.9 °F - 46.0 °F 97% 30.12 in 1.8 mi Calm Calm - N/A   Clear
3:24 AM 46.0 °F - 45.0 °F 96% 30.12 in 1.0 mi Calm Calm - N/A   Clear
3:26 AM 46.0 °F - 45.0 °F 96% 30.12 in 0.5 mi Calm Calm - N/A Fog Fog
3:29 AM 46.0 °F 44.8 °F 45.0 °F 96% 30.12 in 0.2 mi NE 3.5 mph - N/A Fog Fog
3:35 AM 46.9 °F - 46.0 °F 97% 30.12 in 0.5 mi NNE 8.1 mph - N/A Fog Fog
3:37 AM 48.0 °F - 46.0 °F 93% 30.12 in 0.8 mi NNE 10.4 mph - N/A   Mist
3:39 AM 48.9 °F - 46.9 °F 93% 30.12 in 1.2 mi NE 11.5 mph - N/A   Mostly Cloudy
3:41 AM 50.0 °F - 48.0 °F 93% 30.12 in 2.0 mi NE 13.8 mph - N/A   Mostly Cloudy
3:44 AM 51.1 °F - 48.9 °F 92% 30.12 in 8.0 mi NE 11.5 mph - N/A   Mostly Cloudy
3:56 AM 51.1 °F - 50.0 °F 96% 30.13 in 10.0 mi NE 10.4 mph - N/A   Mostly Cloudy
4:17 AM 50.0 °F - 48.0 °F 93% 30.12 in 10.0 mi NE 17.3 mph - N/A   Partly Cloudy
4:56 AM 50.0 °F - 48.0 °F 93% 30.14 in 10.0 mi NE 13.8 mph - N/A   Clear
5:56 AM 48.9 °F - 46.0 °F 90% 30.18 in 9.0 mi NNE 15.0 mph - N/A   Partly Cloudy
6:56 AM 46.9 °F - 45.0 °F 93% 30.21 in 7.0 mi NNE 13.8 mph - N/A   Scattered Clouds
7:56 AM 48.9 °F - 45.0 °F 86% 30.24 in 8.0 mi NE 24.2 mph 28.8 mph N/A   Scattered Clouds
8:56 AM 51.1 °F - 44.1 °F 77% 30.27 in 10.0 mi NE 25.3 mph - N/A   Partly Cloudy
9:43 AM 51.1 °F - 43.0 °F 74% 30.29 in 10.0 mi NE 24.2 mph 36.8 mph N/A   Mostly Cloudy
9:56 AM 51.1 °F - 43.0 °F 74% 30.30 in 10.0 mi NE 25.3 mph 35.7 mph N/A   Mostly Cloudy
10:56 AM 51.1 °F - 42.1 °F 71% 30.32 in 10.0 mi NE 19.6 mph - N/A   Mostly Cloudy
11:36 AM 53.1 °F - 41.0 °F 64% 30.31 in 10.0 mi NE 21.9 mph - N/A   Scattered Clouds
11:56 AM 53.1 °F - 41.0 °F 64% 30.31 in 10.0 mi NE 19.6 mph - N/A   Scattered Clouds
12:56 PM 55.0 °F - 39.0 °F 55% 30.27 in 10.0 mi NE 20.7 mph - N/A   Partly Cloudy
1:56 PM 55.9 °F - 37.9 °F 51% 30.23 in 10.0 mi NE 21.9 mph - N/A   Partly Cloudy
2:56 PM 57.0 °F - 39.0 °F 51% 30.22 in 10.0 mi NE 19.6 mph - N/A   Mostly Cloudy
3:56 PM 54.0 °F - 37.0 °F 53% 30.24 in 10.0 mi ENE 17.3 mph - N/A   Mostly Cloudy
4:56 PM 52.0 °F - 37.9 °F 59% 30.25 in 10.0 mi ENE 17.3 mph - N/A   Overcast
5:56 PM 52.0 °F - 36.0 °F 54% 30.27 in 10.0 mi ENE 18.4 mph - N/A   Overcast
6:56 PM 51.1 °F - 37.0 °F 59% 30.27 in 10.0 mi NE 19.6 mph - N/A   Overcast
7:56 PM 50.0 °F - 36.0 °F 59% 30.29 in 10.0 mi NNE 18.4 mph - N/A   Overcast
8:56 PM 48.9 °F - 34.0 °F 56% 30.31 in 10.0 mi NNE 21.9 mph - N/A   Overcast
9:56 PM 48.0 °F - 32.0 °F 54% 30.32 in 10.0 mi NNE 24.2 mph - N/A   Overcast
10:56 PM 46.0 °F 37.6 °F 32.0 °F 58% 30.33 in 10.0 mi NNE 24.2 mph - N/A   Overcast
11:56 PM 45.0 °F 36.2 °F 30.9 °F 58% 30.32 in 10.0 mi North 24.2 mph - N/A   Overcast